CZ-3C DEB

基本信息
目录编号:
40170
目录名称:
CZ-3C DEB
国际标识:
2010-057Y
轨道中心:
EARTH
物体状态:
在轨
发射日期:
2010-10-31 UTC
轨道信息
数据来源: 国际轨道数据
星历时间: 2026-07-13T09:43:33+0800
半长轴: 24690.495km
偏心率: 0.7132605
轨道倾角: 20.050°
近地点辐角: 157.998°
升交点赤经: 96.739°
平近点角: 356.895°
近地点: 701.603km
远地点: 35923.113km
周期: 643.509分钟
每日圈数: 2.237732
详细信息
发射场:
XSC
轨道高度:
LEO
数据来源:
AOE Integration Group
参考系:
TEME
时间系统:
UTC
历元类型:
SGP4
2D轨道图
3D轨道图
轨道高度分析图
轨道倾角分析图
轨道综合分析图
查看轨道综合分析图